SCP
1 0 0 0 0 0 0 0 0 0 0 0 0 0 0 0 0 0 0 0 0 0 0 0 -0 -0 -0 -0 -0 -0 -0 -0 -0 -0 -0 -0 -0 -0 -0 -0 -0 -0 -0 -0 -0 -0 0 0 0
0 0 0 0 0 0 0 0 0 0 0 0 0 0 0 0 0 0 1 0 0 0 0 0 0 -0 -0 -0 -0 -0 0 0 -0 -0 -0 -0 -0 -0 -0 -0 -0 -0 0 0 0 0 0 0 0
0 0 0 0 0 0 0 0 0 0 -0 0 0 0 1 1 0 0 0 0 0 0 0 0 0 -0 -0 -0 0 0 0 0 -0 0 0 -0 -0 -0 -0 -0 0 0 0 0 0 0 0 0 0
0 0 0 0 0 0 0 0 0 0 0 0 0 0 0 1 1 1 0 0 1 1 0 0 0 0 -0 0 0 0 0 0 0 0 0 0 0 0 0 0 0 0 0 0 0 0 0 0 0
0 0 0 0 0 0 0 0 0 0 0 0 0 0 0 1 1 1 0 0 1 1 0 0 -0 -0 -0 -0 -0 -0 0 0 0 0 0 0 0 0 0 0 0 0 0 0 0 0 0 0 0
1 0 0 0 0 0 0 0 0 0 0 0 0 0 0 1 1 1 0 0 1 1 0 0 -0 -0 -0 -0 -0 -0 -0 -0 0 0 0 0 0 0 0 0 0 0 0 0 0 0 0 -0 -0
1 0 0 0 0 0 0 0 0 0 0 0 0 0 0 0 0 1 0 1 1 1 1 0 -0 -0 -0 -0 -0 -0 -0 -0 -0 0 0 0 0 0 0 0 0 0 0 0 0 -0 -0 -0 -0
0 1 0 0 0 0 0 0 0 0 0 0 0 0 0 0 0 1 1 1 1 1 0 0 0 0 -0 -0 -0 -0 -0 -0 -0 -0 -0 -0 -0 -0 -0 -0 -0 -0 -0 -0 -0 -0 -0 -0 0
0 1 0 0 0 0 0 0 0 0 0 0 0 0 0 0 0 1 1 1 1 1 0 0 0 0 0 -0 -0 -0 -0 -0 -0 -0 -0 -0 -0 -0 -0 -0 0 0 0 0 0 0 0 0 0
0 0 0 0 0 0 0 0 0 0 1 2 2 2 1 0 0 0 0 0 1 0 0 0 0 0 0 0 0 -0 -0 -0 -0 -0 -0 -0 -0 -0 -0 0 0 0 0 0 0 0 0 0 0
0 0 0 0 1 0 0 0 0 0 0 0 2 1 1 0 0 0 0 0 0 0 0 0 0 0 0 0 0 0 0 0 0 0 0 0 0 0 0 0 0 0 0 0 0 0 0 0 0
1 0 0 1 0 0 0 0 0 0 0 0 1 2 2 0 0 0 0 1 0 0 0 0 0 0 0 0 0 0 0 0 0 0 0 0 0 0 0 0 0 0 0 0 0 0 0 0 0
0 0 0 0 0 0 0 0 0 0 0 0 2 2 1 1 1 0 0 0 0 0 0 0 0 0 0 0 0 0 0 0 0 0 0 0 0 0 0 0 0 0 0 0 0 0 0 0 0
0 0 0 0 0 0 0 0 0 0 0 1 1 1 1 1 1 1 0 0 0 0 0 0 0 0 0 0 0 0 0 0 0 0 0 0 0 0 0 0 0 0 0 0 0 0 0 0 0
0 0 0 -0 0 0 0 0 0 0 0 1 1 1 1 1 1 1 1 0 0 0 0 -0 0 0 0 0 0 0 0 0 0 0 0 0 0 0 0 0 0 0 0 0 0 0 0 0 0
0 0 0 0 0 0 0 0 0 0 0 0 0 0 0 0 0 0 0 0 0 0 0 1 1 0 0 0 0 0 0 0 0 0 0 0 0 0 0 0 0 0 0 0 0 0 0 0 0
0 0 0 0 0 0 0 0 0 0 0 0 0 0 0 0 0 0 0 0 0 1 0 1 1 1 0 0 0 0 0 0 0 0 0 0 0 0 0 0 0 0 0 0 0 0 0 0 0
0 0 0 0 0 -0 -0 0 0 0 0 0 0 0 0 0 0 0 0 0 0 0 1 0 0 0 0 0 0 0 0 0 0 0 0 0 0 0 0 0 0 0 0 0 0 0 0 0 0
0 0 0 0 0 0 0 0 0 0 0 0 0 0 0 0 0 0 0 0 0 0 0 0 0 0 0 0 0 0 0 0 0 0 0 0 0 0 0 0 0 0 0 0 0 0 0 0 0
0 0 0 0 -0 -0 0 0 0 0 0 0 0 0 0 0 0 0 0 0 0 0 0 0 0 0 0 1 0 0 0 0 0 0 0 0 0 0 0 0 0 0 0 0 0 0 0 0 0
0 0 0 0 0 -0 0 0 0 0 0 0 0 0 0 0 0 0 0 0 0 0 0 0 0 0 0 0 0 0 0 0 0 0 0 0 0 0 0 0 0 0 0 0 0 0 0 0 0
0 0 0 0 0 0 0 0 0 0 0 -0 0 0 0 0 0 0 0 0 0 0 0 0 0 0 0 0 0 0 0 0 0 0 0 0 0 0 0 0 0 0 0 0 0 0 0 0 0
0 0 0 0 0 0 0 0 0 0 0 0 -0 -0 0 0 0 0 0 0 0 0 0 0 0 0 0 0 0 0 0 0 0 0 0 0 0 0 0 0 0 0 0 0 0 0 0 0 0
0 0 0 0 0 0 0 0 0 0 0 0 0 0 0 0 0 0 0 0 0 0 0 0 0 0 0 0 0 0 0 0 0 0 0 0 0 0 0 0 0 0 0 0 0 0 0 0 0
0 0 0 0 0 0 0 0 0 0 0 0 0 0 0 0 0 0 0 0 0 0 0 0 0 0 0 0 0 0 0 0 0 0 0 0 0 0 0 0 0 0 0 0 0 0 0 0 0
0 0 0 0 0 0 0 0 0 0 0 0 0 0 0 0 0 0 0 0 0 0 0 0 0 0 0 0 0 0 0 0 0 0 0 0 0 0 0 0 0 0 0 0 0 0 0 0 0
0 0 0 0 0 0 0 0 0 0 0 0 0 0 0 0 0 0 0 0 0 0 0 0 0 0 0 0 0 0 0 0 0 0 0 0 0 0 0 0 0 0 0 0 0 0 0 0 0
0 0 0 0 0 0 0 0 0 0 0 0 0 0 0 0 0 0 0 0 0 0 0 0 0 0 0 0 0 0 0 0 0 0 0 0 0 0 0 0 0 0 0 0 0 0 0 0 0
0 0 0 0 0 0 0 0 0 0 0 0 0 0 0 0 0 0 0 0 0 0 0 0 0 0 0 0 0 0 0 0 0 0 0 0 0 0 0 0 0 0 0 0 0 0 0 0 0
0 0 0 0 0 0 0 0 0 0 0 0 0 0 0 0 0 0 0 0 0 0 0 0 0 0 0 0 0 0 0 0 0 0 0 0 0 0 0 0 0 0 0 0 0 0 0 0 0
Wind_Speed_500mb
20 19 14 12 5 7 8 12 8 11 11 2 20 7 14 15 3 6 26 58 59 62 57 50 43 40 38 32 33 34 35 36 36 40 40 40 38 36 35 32 25 22 32 36 40 42 44 44 42
23 24 18 9 7 10 24 11 16 10 33 22 12 13 17 4 9 26 53 42 53 61 57 51 46 43 35 32 35 38 39 37 39 39 37 34 31 29 27 25 29 34 40 41 42 42 42 40 36
24 25 16 8 8 16 22 21 21 17 45 48 15 11 7 8 27 40 16 51 60 61 56 52 46 40 35 36 41 44 41 39 40 40 38 37 33 32 32 37 40 40 41 42 41 41 39 37 34
13 17 8 7 19 13 11 12 23 11 8 40 49 11 7 21 10 21 38 56 65 60 54 49 45 37 37 39 43 46 43 39 40 40 39 39 40 41 42 42 42 41 41 40 39 38 36 33 29
21 11 6 6 14 7 13 18 12 10 62 15 43 18 9 26 17 38 35 55 61 57 52 47 40 35 39 40 44 46 44 42 37 39 40 41 42 42 41 41 39 38 37 37 35 32 31 28 24
18 12 8 13 11 12 11 34 18 19 22 32 23 34 11 20 40 43 37 44 54 57 51 46 39 35 39 38 41 45 46 45 37 38 40 41 41 40 38 37 36 34 32 31 30 28 26 23 18
14 9 10 15 9 12 12 17 21 16 22 7 53 15 25 19 26 49 42 29 48 52 51 45 40 38 38 35 36 41 44 45 41 36 36 38 39 37 36 34 31 29 27 25 23 22 20 18 15
29 8 7 10 12 15 9 12 9 24 9 34 25 20 25 70 45 34 36 33 44 48 47 44 44 46 39 33 33 39 43 43 39 33 30 33 33 33 31 29 26 23 21 18 16 15 13 12 10
37 11 23 12 18 8 13 8 4 13 29 15 23 43 59 71 65 52 31 40 44 41 45 43 42 44 35 29 34 40 41 41 41 32 27 29 28 28 27 24 21 18 15 12 11 8 7 6 5
16 15 23 7 2 5 4 7 13 11 14 10 27 42 72 86 85 79 49 49 57 53 49 45 43 42 35 29 35 39 39 39 36 30 27 25 27 22 20 17 16 14 11 10 8 7 6 4 3
7 20 14 6 6 3 3 3 6 25 6 12 38 67 73 79 79 83 86 59 56 49 41 43 39 40 34 30 34 36 36 37 34 29 28 26 24 20 15 10 11 12 10 10 9 7 5 4 2
8 16 34 6 15 8 8 22 9 8 11 27 45 70 83 75 76 76 63 61 36 42 37 34 32 37 30 27 27 31 33 34 33 30 25 22 22 15 8 11 9 8 9 9 9 7 5 3 4
20 16 43 16 14 17 16 15 6 24 24 23 32 48 61 63 65 66 60 68 66 13 26 35 35 27 32 25 26 28 27 28 28 26 23 17 17 10 9 10 10 7 7 8 7 6 5 5 8
38 19 35 44 11 16 17 12 5 16 20 23 22 29 43 53 55 52 56 44 35 37 55 40 44 31 27 23 24 25 21 17 23 24 21 20 17 16 15 16 13 10 8 8 8 7 8 9 12
14 18 12 26 33 6 16 4 6 14 15 26 18 15 31 44 56 48 51 45 43 49 50 41 44 43 36 31 26 24 23 21 20 16 18 22 25 26 22 18 15 12 10 10 11 12 13 15 18
18 12 14 11 32 9 11 8 7 10 16 24 20 15 16 31 42 58 47 42 48 52 60 58 54 42 39 39 32 30 27 30 28 25 19 24 29 30 24 21 18 16 14 14 14 15 18 20 21
7 6 17 7 11 10 14 10 23 14 21 13 25 21 16 16 23 36 50 58 55 54 54 58 56 39 41 41 40 42 36 34 34 31 25 22 23 24 22 19 17 18 17 17 17 18 21 22 23
11 11 6 13 8 11 20 13 11 17 20 22 21 24 22 24 15 15 31 44 54 48 48 51 52 48 39 50 50 47 47 48 41 36 26 28 24 13 13 11 10 16 19 20 22 24 24 27 30
6 20 15 12 21 10 12 20 13 27 32 30 31 28 21 23 21 17 16 32 43 48 50 53 54 52 51 53 45 46 52 51 45 39 33 32 30 27 23 20 23 23 23 24 28 31 31 34 37
6 20 14 11 23 18 21 27 18 31 29 31 41 44 38 29 21 25 26 21 35 41 46 44 51 49 50 49 51 46 50 58 42 39 41 44 41 36 32 31 33 31 30 31 33 34 37 40 38
10 17 12 14 25 20 13 9 15 18 37 29 37 55 52 43 39 30 36 31 26 30 43 44 47 44 49 47 50 50 49 48 48 47 44 38 36 37 36 36 39 41 40 43 39 43 44 47 50
11 11 4 26 24 7 4 4 14 18 20 17 38 49 55 49 46 53 46 45 37 30 29 41 45 45 49 47 46 50 52 53 45 47 41 44 50 44 44 48 49 45 41 41 43 47 49 50 51
5 9 9 13 6 5 16 8 10 11 20 17 32 60 59 53 48 45 57 54 51 41 35 32 41 46 51 49 52 50 54 52 53 56 57 50 48 44 44 45 42 40 41 42 45 46 47 47 44
6 6 15 14 6 1 12 9 9 8 13 11 27 51 62 58 53 43 38 43 54 59 49 43 37 37 47 54 57 57 53 52 54 54 56 53 50 46 42 40 39 39 42 44 45 44 43 42 42
4 8 5 5 3 6 6 6 16 10 8 14 20 45 52 57 50 46 45 39 35 55 64 55 48 43 43 49 52 52 52 56 57 55 54 52 48 43 39 37 37 39 40 41 42 42 43 44 45
7 8 7 7 8 5 7 9 9 3 4 4 18 25 18 11 24 42 48 36 36 31 67 62 56 52 51 50 54 56 58 60 56 50 49 46 43 40 36 36 37 38 38 39 41 42 42 42 42
6 1 5 9 4 6 6 10 12 12 13 15 23 22 13 6 5 3 16 37 31 26 46 61 51 47 47 50 52 54 55 54 53 49 45 43 37 33 33 36 39 40 40 41 41 41 41 41 40
8 6 3 6 6 6 4 5 7 5 6 5 12 19 16 10 6 6 4 9 24 36 44 51 49 45 46 50 50 47 46 44 45 38 37 38 33 34 34 38 39 40 42 42 42 41 41 41 39
5 2 7 7 6 6 5 9 10 16 14 16 12 19 18 17 16 7 4 10 13 29 46 45 42 41 42 45 45 44 44 43 45 45 40 38 33 28 47 53 44 42 42 43 42 42 42 40 40
2 3 5 8 4 3 7 8 10 15 15 26 19 11 9 9 13 11 10 10 13 20 29 34 37 37 38 42 44 42 42 44 47 40 40 39 39 48 50 43 42 42 42 42 43 41 40 39 38
Wind_Direction_500mb
236 223 200 164 117 103 237 241 250 180 199 224 360 351 110 36 114 211 152 162 161 161 162 162 155 148 147 146 141 138 134 131 131 140 140 139 137 135 127 130 133 124 117 112 114 115 114 112 108
233 216 206 179 154 167 219 230 249 204 157 157 235 340 51 46 44 136 147 162 166 161 160 159 154 152 154 148 146 142 136 127 123 130 141 146 149 149 146 143 124 118 114 114 114 117 117 113 110
246 228 178 165 186 205 211 204 224 211 141 161 205 19 40 35 104 146 173 164 168 161 159 157 156 157 153 146 144 143 137 129 123 122 127 133 139 141 135 122 118 116 116 117 117 117 118 115 111
227 216 222 158 217 229 184 163 209 180 276 151 167 41 58 29 185 179 166 166 169 160 158 158 157 161 151 145 145 145 140 134 126 121 120 120 122 123 121 119 119 118 116 117 119 121 120 118 110
231 192 191 224 239 258 242 247 250 175 197 162 148 144 124 57 140 152 158 166 167 157 157 159 160 161 153 145 147 149 144 138 132 124 120 118 119 122 122 121 120 119 118 118 120 121 123 119 112
209 181 173 218 234 212 250 238 210 152 168 156 141 142 108 119 140 151 154 170 169 160 160 162 164 163 157 148 149 153 151 145 141 133 128 126 125 127 127 126 125 124 121 120 122 122 122 122 119
235 140 202 211 195 229 222 232 213 143 158 193 153 128 164 192 127 157 154 160 173 164 165 168 166 158 162 156 154 157 158 152 148 147 138 135 134 133 132 131 130 129 128 127 127 127 128 128 128
223 136 197 202 189 224 198 147 172 161 131 139 163 161 165 189 177 142 152 173 178 174 173 174 168 168 169 164 163 162 162 159 152 165 152 141 139 137 135 134 134 135 137 137 136 135 136 139 141
214 149 211 214 178 230 186 153 179 140 135 150 168 164 179 174 169 185 176 188 184 182 184 183 178 174 173 167 166 164 166 167 164 163 151 148 148 144 142 143 142 144 147 149 150 153 159 159 151
212 190 191 216 153 213 227 141 138 118 116 86 137 158 157 170 184 169 194 192 198 187 188 191 186 178 174 167 166 167 170 172 173 168 161 154 153 155 153 154 157 161 166 174 181 192 205 205 197
261 196 171 189 7 43 230 140 102 127 69 166 155 149 164 172 174 176 181 209 210 191 188 189 190 184 177 170 170 171 176 175 175 179 178 165 162 154 166 179 187 190 195 200 204 210 209 205 253
265 235 177 57 8 60 4 302 81 143 136 137 163 160 164 171 180 192 208 184 174 186 190 191 194 193 176 167 167 176 169 171 176 176 182 188 185 179 194 206 192 186 193 196 201 215 231 264 329
208 168 176 134 11 30 16 33 119 123 125 134 151 177 182 184 180 190 193 188 198 218 230 199 194 197 187 171 164 160 167 180 180 184 193 207 205 214 230 228 219 214 217 219 221 226 262 299 312
196 254 186 187 29 33 15 331 67 137 134 136 152 172 190 195 200 187 184 186 196 204 267 210 209 200 204 193 194 176 168 173 192 197 209 222 235 244 239 230 231 229 237 252 258 265 278 294 301
252 190 114 185 242 191 321 13 128 24 155 152 151 166 186 193 201 203 196 193 185 185 179 208 217 207 203 203 202 194 200 202 220 227 223 240 241 236 238 233 234 244 248 260 264 268 274 279 284
181 186 177 141 193 118 50 211 236 322 3 166 158 148 167 193 197 206 203 207 198 194 189 194 203 213 211 204 202 206 213 215 219 239 239 246 243 238 234 230 225 225 230 237 250 264 273 277 277
118 130 164 103 180 55 120 269 287 287 335 227 167 170 169 165 190 211 201 207 208 205 204 196 196 205 226 218 210 209 213 212 218 231 234 243 230 228 227 226 224 231 240 249 260 270 276 284 295
161 127 71 145 144 119 191 212 290 286 299 262 215 183 188 184 178 184 203 205 207 207 215 215 220 211 214 229 219 210 213 224 223 222 247 227 227 233 229 232 249 257 256 257 266 271 274 286 280
91 125 149 165 149 142 198 247 208 259 266 255 238 223 191 192 192 197 192 205 205 202 211 216 220 215 202 210 222 222 216 217 217 220 222 218 224 228 228 237 244 253 261 260 266 271 274 275 284
65 156 163 152 147 176 203 242 207 218 251 234 225 235 214 211 213 213 203 209 212 212 213 212 215 214 216 204 211 223 226 223 225 223 221 223 222 227 229 239 248 253 254 259 263 267 275 273 275
68 157 151 139 171 210 169 246 215 220 229 246 228 233 231 232 239 234 217 213 222 216 219 216 217 214 217 214 206 209 213 220 225 221 227 229 225 232 238 245 254 260 254 264 263 264 266 271 272
119 206 230 156 158 183 140 259 223 222 230 234 239 237 240 241 244 247 236 231 224 222 222 222 217 217 218 221 220 216 216 219 221 235 229 233 239 240 246 254 256 259 265 271 272 273 273 272 275
106 315 194 154 96 117 161 250 261 178 225 234 238 243 245 244 243 243 234 245 244 234 226 222 222 224 225 223 229 228 230 225 228 224 229 227 231 236 246 252 254 261 268 273 276 276 276 276 276
300 120 56 58 60 76 197 159 273 192 210 220 231 237 240 243 247 243 245 252 244 241 233 229 228 228 228 229 231 231 232 234 235 233 226 228 236 243 247 250 257 265 271 276 278 279 278 277 276
325 51 81 163 121 204 156 161 250 265 256 211 218 235 243 241 240 241 244 239 249 239 232 227 226 229 230 228 231 233 234 231 229 229 239 239 240 243 247 252 263 272 279 281 279 278 278 277 276
148 120 148 143 160 188 117 228 260 295 336 289 238 239 180 194 242 243 243 243 245 248 224 225 227 227 231 233 228 228 226 230 238 234 232 238 243 244 250 261 273 278 280 280 280 279 279 277 277
121 213 203 109 17 81 195 287 327 25 26 61 89 113 110 148 153 121 226 237 238 238 230 230 235 239 240 238 235 231 227 229 225 228 232 233 238 251 265 276 280 279 285 282 279 279 277 278 276
138 201 53 1 127 173 282 284 233 203 148 124 99 102 100 89 85 91 129 207 225 226 221 225 233 240 244 241 236 230 227 221 226 225 230 234 244 254 263 268 273 273 278 276 277 277 276 275 274
18 49 62 104 109 146 132 253 217 205 174 144 146 117 101 83 61 53 269 249 225 228 234 238 238 239 240 238 234 228 224 217 218 221 235 244 247 269 293 286 276 279 279 281 280 278 277 276 275
152 208 94 113 246 78 144 285 348 154 174 146 148 127 109 57 35 28 12 337 293 254 242 246 245 245 246 242 235 229 227 222 222 222 221 223 245 276 272 269 277 282 281 279 277 277 278 276 274
Wind_Speed_850mb
20 19 14 12 5 7 8 12 8 11 11 2 20 7 14 15 3 6 26 58 59 62 57 50 43 40 38 32 33 34 35 36 36 40 40 40 38 36 35 32 25 22 32 36 40 42 44 44 42
23 24 18 9 7 10 24 11 16 10 33 22 12 13 17 4 9 26 53 42 53 61 57 51 46 43 35 32 35 38 39 37 39 39 37 34 31 29 27 25 29 34 40 41 42 42 42 40 36
24 25 16 8 8 16 22 21 21 17 45 48 15 11 7 8 27 40 16 51 60 61 56 52 46 40 35 36 41 44 41 39 40 40 38 37 33 32 32 37 40 40 41 42 41 41 39 37 34
13 17 8 7 19 13 11 12 23 11 8 40 49 11 7 21 10 21 38 56 65 60 54 49 45 37 37 39 43 46 43 39 40 40 39 39 40 41 42 42 42 41 41 40 39 38 36 33 29
21 11 6 6 14 7 13 18 12 10 62 15 43 18 9 26 17 38 35 55 61 57 52 47 40 35 39 40 44 46 44 42 37 39 40 41 42 42 41 41 39 38 37 37 35 32 31 28 24
18 12 8 13 11 12 11 34 18 19 22 32 23 34 11 20 40 43 37 44 54 57 51 46 39 35 39 38 41 45 46 45 37 38 40 41 41 40 38 37 36 34 32 31 30 28 26 23 18
14 9 10 15 9 12 12 17 21 16 22 7 53 15 25 19 26 49 42 29 48 52 51 45 40 38 38 35 36 41 44 45 41 36 36 38 39 37 36 34 31 29 27 25 23 22 20 18 15
29 8 7 10 12 15 9 12 9 24 9 34 25 20 25 70 45 34 36 33 44 48 47 44 44 46 39 33 33 39 43 43 39 33 30 33 33 33 31 29 26 23 21 18 16 15 13 12 10
37 11 23 12 18 8 13 8 4 13 29 15 23 43 59 71 65 52 31 40 44 41 45 43 42 44 35 29 34 40 41 41 41 32 27 29 28 28 27 24 21 18 15 12 11 8 7 6 5
16 15 23 7 2 5 4 7 13 11 14 10 27 42 72 86 85 79 49 49 57 53 49 45 43 42 35 29 35 39 39 39 36 30 27 25 27 22 20 17 16 14 11 10 8 7 6 4 3
7 20 14 6 6 3 3 3 6 25 6 12 38 67 73 79 79 83 86 59 56 49 41 43 39 40 34 30 34 36 36 37 34 29 28 26 24 20 15 10 11 12 10 10 9 7 5 4 2
8 16 34 6 15 8 8 22 9 8 11 27 45 70 83 75 76 76 63 61 36 42 37 34 32 37 30 27 27 31 33 34 33 30 25 22 22 15 8 11 9 8 9 9 9 7 5 3 4
20 16 43 16 14 17 16 15 6 24 24 23 32 48 61 63 65 66 60 68 66 13 26 35 35 27 32 25 26 28 27 28 28 26 23 17 17 10 9 10 10 7 7 8 7 6 5 5 8
38 19 35 44 11 16 17 12 5 16 20 23 22 29 43 53 55 52 56 44 35 37 55 40 44 31 27 23 24 25 21 17 23 24 21 20 17 16 15 16 13 10 8 8 8 7 8 9 12
14 18 12 26 33 6 16 4 6 14 15 26 18 15 31 44 56 48 51 45 43 49 50 41 44 43 36 31 26 24 23 21 20 16 18 22 25 26 22 18 15 12 10 10 11 12 13 15 18
18 12 14 11 32 9 11 8 7 10 16 24 20 15 16 31 42 58 47 42 48 52 60 58 54 42 39 39 32 30 27 30 28 25 19 24 29 30 24 21 18 16 14 14 14 15 18 20 21
7 6 17 7 11 10 14 10 23 14 21 13 25 21 16 16 23 36 50 58 55 54 54 58 56 39 41 41 40 42 36 34 34 31 25 22 23 24 22 19 17 18 17 17 17 18 21 22 23
11 11 6 13 8 11 20 13 11 17 20 22 21 24 22 24 15 15 31 44 54 48 48 51 52 48 39 50 50 47 47 48 41 36 26 28 24 13 13 11 10 16 19 20 22 24 24 27 30
6 20 15 12 21 10 12 20 13 27 32 30 31 28 21 23 21 17 16 32 43 48 50 53 54 52 51 53 45 46 52 51 45 39 33 32 30 27 23 20 23 23 23 24 28 31 31 34 37
6 20 14 11 23 18 21 27 18 31 29 31 41 44 38 29 21 25 26 21 35 41 46 44 51 49 50 49 51 46 50 58 42 39 41 44 41 36 32 31 33 31 30 31 33 34 37 40 38
10 17 12 14 25 20 13 9 15 18 37 29 37 55 52 43 39 30 36 31 26 30 43 44 47 44 49 47 50 50 49 48 48 47 44 38 36 37 36 36 39 41 40 43 39 43 44 47 50
11 11 4 26 24 7 4 4 14 18 20 17 38 49 55 49 46 53 46 45 37 30 29 41 45 45 49 47 46 50 52 53 45 47 41 44 50 44 44 48 49 45 41 41 43 47 49 50 51
5 9 9 13 6 5 16 8 10 11 20 17 32 60 59 53 48 45 57 54 51 41 35 32 41 46 51 49 52 50 54 52 53 56 57 50 48 44 44 45 42 40 41 42 45 46 47 47 44
6 6 15 14 6 1 12 9 9 8 13 11 27 51 62 58 53 43 38 43 54 59 49 43 37 37 47 54 57 57 53 52 54 54 56 53 50 46 42 40 39 39 42 44 45 44 43 42 42
4 8 5 5 3 6 6 6 16 10 8 14 20 45 52 57 50 46 45 39 35 55 64 55 48 43 43 49 52 52 52 56 57 55 54 52 48 43 39 37 37 39 40 41 42 42 43 44 45
7 8 7 7 8 5 7 9 9 3 4 4 18 25 18 11 24 42 48 36 36 31 67 62 56 52 51 50 54 56 58 60 56 50 49 46 43 40 36 36 37 38 38 39 41 42 42 42 42
6 1 5 9 4 6 6 10 12 12 13 15 23 22 13 6 5 3 16 37 31 26 46 61 51 47 47 50 52 54 55 54 53 49 45 43 37 33 33 36 39 40 40 41 41 41 41 41 40
8 6 3 6 6 6 4 5 7 5 6 5 12 19 16 10 6 6 4 9 24 36 44 51 49 45 46 50 50 47 46 44 45 38 37 38 33 34 34 38 39 40 42 42 42 41 41 41 39
5 2 7 7 6 6 5 9 10 16 14 16 12 19 18 17 16 7 4 10 13 29 46 45 42 41 42 45 45 44 44 43 45 45 40 38 33 28 47 53 44 42 42 43 42 42 42 40 40
2 3 5 8 4 3 7 8 10 15 15 26 19 11 9 9 13 11 10 10 13 20 29 34 37 37 38 42 44 42 42 44 47 40 40 39 39 48 50 43 42 42 42 42 43 41 40 39 38
Wind_Direction_850mb
236 223 200 164 117 103 237 241 250 180 199 224 360 351 110 36 114 211 152 162 161 161 162 162 155 148 147 146 141 138 134 131 131 140 140 139 137 135 127 130 133 124 117 112 114 115 114 112 108
233 216 206 179 154 167 219 230 249 204 157 157 235 340 51 46 44 136 147 162 166 161 160 159 154 152 154 148 146 142 136 127 123 130 141 146 149 149 146 143 124 118 114 114 114 117 117 113 110
246 228 178 165 186 205 211 204 224 211 141 161 205 19 40 35 104 146 173 164 168 161 159 157 156 157 153 146 144 143 137 129 123 122 127 133 139 141 135 122 118 116 116 117 117 117 118 115 111
227 216 222 158 217 229 184 163 209 180 276 151 167 41 58 29 185 179 166 166 169 160 158 158 157 161 151 145 145 145 140 134 126 121 120 120 122 123 121 119 119 118 116 117 119 121 120 118 110
231 192 191 224 239 258 242 247 250 175 197 162 148 144 124 57 140 152 158 166 167 157 157 159 160 161 153 145 147 149 144 138 132 124 120 118 119 122 122 121 120 119 118 118 120 121 123 119 112
209 181 173 218 234 212 250 238 210 152 168 156 141 142 108 119 140 151 154 170 169 160 160 162 164 163 157 148 149 153 151 145 141 133 128 126 125 127 127 126 125 124 121 120 122 122 122 122 119
235 140 202 211 195 229 222 232 213 143 158 193 153 128 164 192 127 157 154 160 173 164 165 168 166 158 162 156 154 157 158 152 148 147 138 135 134 133 132 131 130 129 128 127 127 127 128 128 128
223 136 197 202 189 224 198 147 172 161 131 139 163 161 165 189 177 142 152 173 178 174 173 174 168 168 169 164 163 162 162 159 152 165 152 141 139 137 135 134 134 135 137 137 136 135 136 139 141
214 149 211 214 178 230 186 153 179 140 135 150 168 164 179 174 169 185 176 188 184 182 184 183 178 174 173 167 166 164 166 167 164 163 151 148 148 144 142 143 142 144 147 149 150 153 159 159 151
212 190 191 216 153 213 227 141 138 118 116 86 137 158 157 170 184 169 194 192 198 187 188 191 186 178 174 167 166 167 170 172 173 168 161 154 153 155 153 154 157 161 166 174 181 192 205 205 197
261 196 171 189 7 43 230 140 102 127 69 166 155 149 164 172 174 176 181 209 210 191 188 189 190 184 177 170 170 171 176 175 175 179 178 165 162 154 166 179 187 190 195 200 204 210 209 205 253
265 235 177 57 8 60 4 302 81 143 136 137 163 160 164 171 180 192 208 184 174 186 190 191 194 193 176 167 167 176 169 171 176 176 182 188 185 179 194 206 192 186 193 196 201 215 231 264 329
208 168 176 134 11 30 16 33 119 123 125 134 151 177 182 184 180 190 193 188 198 218 230 199 194 197 187 171 164 160 167 180 180 184 193 207 205 214 230 228 219 214 217 219 221 226 262 299 312
196 254 186 187 29 33 15 331 67 137 134 136 152 172 190 195 200 187 184 186 196 204 267 210 209 200 204 193 194 176 168 173 192 197 209 222 235 244 239 230 231 229 237 252 258 265 278 294 301
252 190 114 185 242 191 321 13 128 24 155 152 151 166 186 193 201 203 196 193 185 185 179 208 217 207 203 203 202 194 200 202 220 227 223 240 241 236 238 233 234 244 248 260 264 268 274 279 284
181 186 177 141 193 118 50 211 236 322 3 166 158 148 167 193 197 206 203 207 198 194 189 194 203 213 211 204 202 206 213 215 219 239 239 246 243 238 234 230 225 225 230 237 250 264 273 277 277
118 130 164 103 180 55 120 269 287 287 335 227 167 170 169 165 190 211 201 207 208 205 204 196 196 205 226 218 210 209 213 212 218 231 234 243 230 228 227 226 224 231 240 249 260 270 276 284 295
161 127 71 145 144 119 191 212 290 286 299 262 215 183 188 184 178 184 203 205 207 207 215 215 220 211 214 229 219 210 213 224 223 222 247 227 227 233 229 232 249 257 256 257 266 271 274 286 280
91 125 149 165 149 142 198 247 208 259 266 255 238 223 191 192 192 197 192 205 205 202 211 216 220 215 202 210 222 222 216 217 217 220 222 218 224 228 228 237 244 253 261 260 266 271 274 275 284
65 156 163 152 147 176 203 242 207 218 251 234 225 235 214 211 213 213 203 209 212 212 213 212 215 214 216 204 211 223 226 223 225 223 221 223 222 227 229 239 248 253 254 259 263 267 275 273 275
68 157 151 139 171 210 169 246 215 220 229 246 228 233 231 232 239 234 217 213 222 216 219 216 217 214 217 214 206 209 213 220 225 221 227 229 225 232 238 245 254 260 254 264 263 264 266 271 272
119 206 230 156 158 183 140 259 223 222 230 234 239 237 240 241 244 247 236 231 224 222 222 222 217 217 218 221 220 216 216 219 221 235 229 233 239 240 246 254 256 259 265 271 272 273 273 272 275
106 315 194 154 96 117 161 250 261 178 225 234 238 243 245 244 243 243 234 245 244 234 226 222 222 224 225 223 229 228 230 225 228 224 229 227 231 236 246 252 254 261 268 273 276 276 276 276 276
300 120 56 58 60 76 197 159 273 192 210 220 231 237 240 243 247 243 245 252 244 241 233 229 228 228 228 229 231 231 232 234 235 233 226 228 236 243 247 250 257 265 271 276 278 279 278 277 276
325 51 81 163 121 204 156 161 250 265 256 211 218 235 243 241 240 241 244 239 249 239 232 227 226 229 230 228 231 233 234 231 229 229 239 239 240 243 247 252 263 272 279 281 279 278 278 277 276
148 120 148 143 160 188 117 228 260 295 336 289 238 239 180 194 242 243 243 243 245 248 224 225 227 227 231 233 228 228 226 230 238 234 232 238 243 244 250 261 273 278 280 280 280 279 279 277 277
121 213 203 109 17 81 195 287 327 25 26 61 89 113 110 148 153 121 226 237 238 238 230 230 235 239 240 238 235 231 227 229 225 228 232 233 238 251 265 276 280 279 285 282 279 279 277 278 276
138 201 53 1 127 173 282 284 233 203 148 124 99 102 100 89 85 91 129 207 225 226 221 225 233 240 244 241 236 230 227 221 226 225 230 234 244 254 263 268 273 273 278 276 277 277 276 275 274
18 49 62 104 109 146 132 253 217 205 174 144 146 117 101 83 61 53 269 249 225 228 234 238 238 239 240 238 234 228 224 217 218 221 235 244 247 269 293 286 276 279 279 281 280 278 277 276 275
152 208 94 113 246 78 144 285 348 154 174 146 148 127 109 57 35 28 12 337 293 254 242 246 245 245 246 242 235 229 227 222 222 222 221 223 245 276 272 269 277 282 281 279 277 277 278 276 274